When you browse on this site, cookies collect data to enhance your experience and personalize the content and advertising you see.
Visit our Privacy Policy to learn more. By continuing to use the site, you agree to this use of cookies and data.
  • In Austria
  • List of Countries
  • For 7 days
  • Water Temperature
  • Satellite Maps
  • Weather Map
  • News
  • Weather Widgets
  • user-avatar
    Login

    Hourly Weather Uige

    Today, 27 June, Thursday

    Time Temperature Precipitation Wind Pressure Humidity
    00:00 +18°C° 0 mm 1 mps 692 mmHg 70%
    01:00 +16°C° 0 mm 1 mps 692 mmHg 74%
    02:00 +16°C° 0 mm 1 mps 692 mmHg 78%
    03:00 +15°C° 0 mm 1 mps 691 mmHg 82%
    04:00 +15°C° 0 mm 1 mps 691 mmHg 86%
    05:00 +15°C° 0 mm 1 mps 692 mmHg 83%
    06:00 +16°C° 0 mm 1 mps 692 mmHg 81%
    07:00 +16°C° 0 mm 1 mps 692 mmHg 78%
    08:00 +21°C° 0 mm 1 mps 693 mmHg 65%
    09:00 +25°C° 0 mm 1 mps 693 mmHg 51%
    10:00 +29°C° 0 mm 1 mps 694 mmHg 38%
    11:00 +31°C° 0 mm 1 mps 694 mmHg 33%
    12:00 +33°C° 0 mm 1 mps 694 mmHg 28%
    13:00 +35°C° 0 mm 1 mps 694 mmHg 24%
    14:00 +35°C° 0 mm 1 mps 693 mmHg 24%
    15:00 +35°C° 0 mm 2 mps 692 mmHg 24%
    16:00 +34°C° 0 mm 2 mps 691 mmHg 25%
    17:00 +30°C° 0 mm 2 mps 691 mmHg 34%
    18:00 +27°C° 0 mm 2 mps 691 mmHg 44%
    19:00 +23°C° 0 mm 1 mps 692 mmHg 53%
    20:00 +22°C° 0 mm 1 mps 692 mmHg 59%
    21:00 +21°C° 0 mm 1 mps 692 mmHg 65%
    22:00 +20°C° 0 mm 1 mps 692 mmHg 70%
    23:00 +19°C° 0 mm 1 mps 692 mmHg 77%

    Tomorrow, 28 June, Friday

    Time Temperature Precipitation Wind Pressure Humidity
    00:00 +18°C° 0 mm 1 mps 692 mmHg 83%
    01:00 +15°C° 0 mm 0 mps 692 mmHg 89%
    02:00 +15°C° 0 mm 0 mps 691 mmHg 92%
    03:00 +15°C° 0 mm 1 mps 691 mmHg 94%
    04:00 +15°C° 0 mm 1 mps 691 mmHg 96%
    05:00 +16°C° 0 mm 1 mps 691 mmHg 94%
    06:00 +16°C° 0 mm 1 mps 692 mmHg 92%
    07:00 +16°C° 0 mm 1 mps 692 mmHg 90%
    08:00 +21°C° 0 mm 1 mps 693 mmHg 75%
    09:00 +24°C° 0 mm 1 mps 693 mmHg 61%
    10:00 +28°C° 0 mm 1 mps 694 mmHg 47%
    11:00 +30°C° 0 mm 1 mps 694 mmHg 40%
    12:00 +32°C° 0 mm 1 mps 693 mmHg 34%
    13:00 +34°C° 0 mm 1 mps 693 mmHg 27%
    14:00 +35°C° 0 mm 2 mps 692 mmHg 28%
    15:00 +34°C° 0 mm 2 mps 691 mmHg 29%
    16:00 +32°C° 0 mm 2 mps 691 mmHg 30%
    17:00 +29°C° 0 mm 2 mps 691 mmHg 40%
    18:00 +26°C° 0 mm 1 mps 691 mmHg 50%
    19:00 +21°C° 0 mm 0 mps 691 mmHg 61%
    20:00 +20°C° 0 mm 0 mps 691 mmHg 65%
    21:00 +21°C° 0 mm 1 mps 692 mmHg 69%
    22:00 +20°C° 0 mm 1 mps 692 mmHg 73%
    23:00 +19°C° 0 mm 1 mps 692 mmHg 78%

    Day after tomorrow, 29 June, Saturday

    Time Temperature Precipitation Wind Pressure Humidity
    00:00 +18°C° 0 mm 1 mps 692 mmHg 82%
    01:00 +18°C° 0 mm 1 mps 691 mmHg 87%
    02:00 +16°C° 0 mm 1 mps 691 mmHg 90%
    03:00 +16°C° 0 mm 1 mps 691 mmHg 92%
    04:00 +14°C° 0 mm 0 mps 691 mmHg 95%
    05:00 +16°C° 0 mm 1 mps 691 mmHg 93%
    06:00 +16°C° 0 mm 1 mps 692 mmHg 90%
    07:00 +18°C° 0 mm 1 mps 692 mmHg 88%
    08:00 +22°C° 0 mm 1 mps 693 mmHg 74%
    09:00 +25°C° 0 mm 1 mps 694 mmHg 60%
    10:00 +29°C° 0 mm 1 mps 694 mmHg 45%
    11:00 +31°C° 0 mm 1 mps 694 mmHg 39%
    12:00 +33°C° 0 mm 1 mps 693 mmHg 33%
    13:00 +35°C° 0 mm 1 mps 693 mmHg 28%
    14:00 +34°C° 0 mm 1 mps 692 mmHg 28%
    15:00 +34°C° 0 mm 1 mps 692 mmHg 28%
    16:00 +34°C° 0 mm 2 mps 691 mmHg 28%
    17:00 +30°C° 0 mm 1 mps 691 mmHg 38%
    18:00 +27°C° 0 mm 1 mps 691 mmHg 48%
    19:00 +24°C° 0 mm 1 mps 691 mmHg 57%
    20:00 +23°C° 0 mm 1 mps 692 mmHg 62%
    21:00 +22°C° 0 mm 1 mps 692 mmHg 67%
    22:00 +20°C° 0 mm 1 mps 693 mmHg 72%
    23:00 +19°C° 0 mm 1 mps 692 mmHg 77%

    30 June, Sunday

    Time Temperature Precipitation Wind Pressure Humidity
    00:00 +18°C° 0 mm 1 mps 692 mmHg 83%
    01:00 +15°C° 0 mm 0 mps 692 mmHg 88%
    02:00 +16°C° 0 mm 1 mps 692 mmHg 90%
    03:00 +16°C° 0 mm 1 mps 692 mmHg 93%
    04:00 +15°C° 0 mm 1 mps 691 mmHg 95%
    05:00 +16°C° 0 mm 1 mps 692 mmHg 93%
    06:00 +16°C° 0 mm 1 mps 693 mmHg 90%
    07:00 +18°C° 0 mm 1 mps 693 mmHg 87%
    08:00 +22°C° 0 mm 1 mps 694 mmHg 72%
    09:00 +25°C° 0 mm 1 mps 694 mmHg 56%
    10:00 +29°C° 0 mm 1 mps 695 mmHg 40%
    11:00 +31°C° 0 mm 1 mps 695 mmHg 35%
    12:00 +32°C° 0 mm 1 mps 694 mmHg 31%
    13:00 +34°C° 0 mm 1 mps 694 mmHg 26%
    14:00 +35°C° 0 mm 2 mps 693 mmHg 26%
    15:00 +34°C° 0 mm 2 mps 692 mmHg 27%
    16:00 +34°C° 0 mm 2 mps 692 mmHg 27%
    17:00 +30°C° 0 mm 2 mps 692 mmHg 35%
    18:00 +27°C° 0 mm 1 mps 692 mmHg 42%
    19:00 +24°C° 0 mm 1 mps 692 mmHg 50%
    20:00 +23°C° 0 mm 1 mps 692 mmHg 56%
    21:00 +22°C° 0 mm 1 mps 692 mmHg 61%
    22:00 +20°C° 0 mm 1 mps 693 mmHg 67%
    23:00 +20°C° 0 mm 1 mps 692 mmHg 70%

    1 July, Monday

    Time Temperature Precipitation Wind Pressure Humidity
    00:00 +19°C° 0 mm 1 mps 692 mmHg 73%
    01:00 +19°C° 0 mm 1 mps 692 mmHg 76%
    02:00 +18°C° 0 mm 1 mps 691 mmHg 77%
    03:00 +18°C° 0 mm 1 mps 691 mmHg 79%
    04:00 +16°C° 0 mm 1 mps 691 mmHg 81%
    05:00 +18°C° 0 mm 1 mps 691 mmHg 78%
    06:00 +18°C° 0 mm 1 mps 691 mmHg 75%
    07:00 +19°C° 0 mm 1 mps 692 mmHg 71%
    08:00 +24°C° 0 mm 1 mps 692 mmHg 57%
    09:00 +28°C° 0 mm 1 mps 693 mmHg 42%
    10:00 +33°C° 0 mm 1 mps 694 mmHg 27%
    11:00 +35°C° 0 mm 1 mps 694 mmHg 24%
    12:00 +37°C° 0 mm 1 mps 693 mmHg 20%
    13:00 +39°C° 0 mm 1 mps 692 mmHg 17%
    14:00 +39°C° 0 mm 1 mps 692 mmHg 17%
    15:00 +37°C° 0 mm 1 mps 691 mmHg 18%
    16:00 +36°C° 0 mm 1 mps 691 mmHg 19%
    17:00 +33°C° 0 mm 1 mps 691 mmHg 29%
    18:00 +29°C° 0 mm 1 mps 690 mmHg 40%
    19:00 +25°C° 0 mm 1 mps 690 mmHg 50%
    20:00 +24°C° 0 mm 1 mps 691 mmHg 56%
    21:00 +23°C° 0 mm 1 mps 691 mmHg 61%
    22:00 +22°C° 0 mm 1 mps 691 mmHg 67%
    23:00 +19°C° 0 mm 0 mps 691 mmHg 73%

    2 July, Tuesday

    Time Temperature Precipitation Wind Pressure Humidity
    00:00 +18°C° 0 mm 0 mps 691 mmHg 78%
    01:00 +17°C° 0 mm 0 mps 691 mmHg 84%
    02:00 +16°C° 0 mm 0 mps 690 mmHg 87%
    03:00 +16°C° 0 mm 0 mps 690 mmHg 91%
    04:00 +15°C° 0 mm 0 mps 690 mmHg 94%
    05:00 +16°C° 0 mm 0 mps 690 mmHg 91%
    06:00 +18°C° 0 mm 1 mps 691 mmHg 89%
    07:00 +18°C° 0 mm 1 mps 691 mmHg 86%
    08:00 +23°C° 0 mm 1 mps 692 mmHg 69%
    09:00 +27°C° 0 mm 1 mps 693 mmHg 52%
    10:00 +32°C° 0 mm 1 mps 694 mmHg 35%
    11:00 +34°C° 0 mm 1 mps 693 mmHg 29%
    12:00 +36°C° 0 mm 1 mps 692 mmHg 23%
    13:00 +37°C° 0 mm 1 mps 692 mmHg 18%
    14:00 +37°C° 0 mm 1 mps 691 mmHg 18%
    15:00 +37°C° 0 mm 2 mps 691 mmHg 18%
    16:00 +37°C° 0 mm 2 mps 690 mmHg 18%
    17:00 +32°C° 0 mm 1 mps 690 mmHg 27%
    18:00 +29°C° 0 mm 1 mps 690 mmHg 36%
    19:00 +23°C° 0 mm 0 mps 690 mmHg 46%
    20:00 +22°C° 0 mm 0 mps 690 mmHg 53%
    21:00 +21°C° 0 mm 0 mps 691 mmHg 61%
    22:00 +19°C° 0 mm 0 mps 691 mmHg 68%
    23:00 +18°C° 0 mm 0 mps 691 mmHg 75%
    Show more